Weather Service Report


240 
ASUS42 KRAH 020310
RWRRAH
NORTH CAROLINA WEATHER ROUNDUP
NATIONAL WEATHER SERVICE RALEIGH NC
1000 PM EST SUN MAR 01 2015

NOTE: "FAIR" INDICATES FEW OR NO CLOUDS BELOW 12,000 FEET WITH NO
SIGNIFICANT WEATHER AND/OR OBSTRUCTIONS TO VISIBILITY.

NCZ001-053-055-056-065-067-020400-
WESTERN NORTH CAROLINA
  
CITY           SKY/WX    TMP DP  RH WIND       PRES   REMARKS
ASHEVILLE      CLOUDY    44  40  85 S3        30.30F                  
JEFFERSON      CLOUDY    49  43  79 W6        30.26S                  
MORGANTON      FOG       41  41 100 W5        30.35F VSB 3/4          
HICKORY        FOG       38  38 100 S5        30.30F VSB 1/4 WCI  34  
RUTHERFORDTON  FOG       40  40 100 CALM      30.33F VSB 1/4          
MOUNT AIRY     MOCLDY    37  34  90 CALM      30.31S FOG              
BOONE          MOCLDY    47  44  88 W8        30.28S                  
$$
 
NCZ021-022-025-041-071-084-088-020400-
CENTRAL NORTH CAROLINA
  
CITY           SKY/WX    TMP DP  RH WIND       PRES   REMARKS
CHARLOTTE      FOG       39  37  92 S5        30.34S VSB 1/2          
GREENSBORO     CLOUDY    36  35  96 SW7       30.30F FOG     WCI  30  
WINSTON-SALEM  CLOUDY    37  34  89 SW7       30.31F FOG     WCI  32  
RALEIGH-DURHAM CLOUDY    34  32  92 SW7       30.32F FOG     WCI  28  
FORT BRAGG     CLOUDY    37  36  93 VRB1      30.34S                  
FAYETTEVILLE   CLOUDY    38  37  97 W5        30.35F FOG     WCI  34  
BURLINGTON     CLOUDY    35  33  92 SW5       30.31F FOG     WCI  31  
LAURINBURG     CLOUDY    38  37  97 W6        30.37R FOG     WCI  33  
$$
 
NCZ011-015-027-028-043-044-047-080-103-020400-
NORTHEASTERN NORTH CAROLINA
  
CITY           SKY/WX    TMP DP  RH WIND       PRES   REMARKS
ROCKY MT-WILSO CLOUDY    35  34  96 SW5       30.33F WCI  31          
GREENVILLE     CLOUDY    36  36 100 W3        30.33S FOG              
WASHINGTON     MOCLDY    37  36  97 S3        30.31F                  
ELIZABETH CITY LGT RAIN  36  36 100 S3        30.31F FOG              
MANTEO         CLOUDY    37  36  93 W6        30.33S WCI  33          
CAPE HATTERAS  LGT RAIN  42  42 100 NW8       30.32F                  
$$
 
NCZ078-087-090-091-093-098-101-020400-
SOUTHEASTERN NORTH CAROLINA
  
CITY           SKY/WX    TMP DP  RH WIND       PRES   REMARKS
LUMBERTON      CLOUDY    40  38  93 S5        30.34F FOG              
GOLDSBORO      CLOUDY    37  37 100 CALM      30.32S                  
KINSTON        CLOUDY    38  38  98 SW5       30.34S FOG     WCI  35  
KENANSVILLE    CLOUDY    38  38  99 CALM      30.35F FOG              
NEW BERN       CLOUDY    40  37  89 CALM      30.36F                  
CHERRY POINT   LGT RAIN  42  40  92 NW5       30.36F FOG              
BEAUFORT       RAIN      46  45  96 NW12      30.35R                  
JACKSONVILLE   CLOUDY    41  39  93 N3        30.35F                  
WILMINGTON     CLOUDY    42  41  96 NW3       30.36F                  
$$


Return to Home page


Western Regional Climate Center, wrcc@dri.edu